Location: Hard
(49.9417°N, 12.0858°E)
Time: 06:22:00
(UTC+00:00)

STARLINK-1353 - Pass Details

Date: 07 June 2020
Orbit: 531 x 535 km, 53.0° (Epoch: 04 July)

Event Time Altitude Azimuth Distance (km) Brightness Sun altitude
Rises 00:32:37 0° 281° (W) 2,680 7.0 -15.0°
Reaches altitude 10° 00:34:53 10° 286° (WNW) 1,789 6.2 -14.9°
Maximum altitude 00:38:52 55° 5° (N) 645 4.3 -14.7°
Drops below altitude 10° 00:42:52 10° 84° (E) 1,790 6.6 -14.4°
Sets 00:45:08 0° 89° (E) 2,680 7.5 -14.3°
